amkingdom.com alexa rank chart, amkingdom.com alexa rank daily changes

amkingdom.com alexa rank chart, amkingdom.com alexa rank daily changes

amkingdom.com
Actual rank:
45 781

RANK HISTORY

Date Rank Diff
2016/12/04 45 781 +52
2016/12/02 45 729 +1 039
2016/12/01 44 690 +54
2016/11/30 44 636 +196
2016/11/29 44 440 -489
2016/11/28 44 929 -130
2016/11/27 45 059 +39
2016/11/26 45 020 -496
2016/11/25 45 516 -121
2016/11/24 45 637 +917
2016/11/23 44 720 -1 750
2016/11/19 46 470 +124
2016/11/18 46 346 +664
2016/11/17 45 682 +2 402
2016/11/16 43 280 -238
2016/11/15 43 518 -780
2016/11/14 44 298 +272
2016/11/13 44 026 +31
2016/11/12 43 995 +94
2016/11/11 43 901 +1 202
2016/11/10 42 699 +829
2016/11/09 41 870 -245
2016/11/08 42 115 -42
2016/11/07 42 157 +761
2016/11/06 41 396 -100
2016/11/05 41 496 +87
2016/11/04 41 409 +294
2016/11/03 41 115 +137
2016/11/02 40 978 -789
2016/11/01 41 767 +314
2016/10/31 41 453 -566
2016/10/30 42 019 -218
2016/10/29 42 237 -125
2016/10/28 42 362 +599
2016/10/27 41 763 +329
2016/10/26 41 434 +658
2016/10/25 40 776 +240
2016/10/24 40 536 -957
2016/10/23 41 493 -194
2016/10/22 41 687 -215
2016/10/21 41 902 -631
2016/10/20 42 533 -23
2016/10/19 42 556 +665
2016/10/18 41 891 -281
2016/10/17 42 172 -2 073
2016/10/16 44 245 -77
2016/10/15 44 322 +5 204
2016/10/14 39 118 -236
2016/10/13 39 354 +112
2016/10/12 39 242 +198
2016/10/11 39 044 +541
2016/10/10 38 503 +185
2016/10/09 38 318 +113
2016/10/08 38 205 -2 622
2016/10/07 40 827 +1 141
2016/10/06 39 686 -1 146
2016/10/05 40 832

WIDGET FOR YOUR SITE

DOMAINS WITH THE NEAREST RANK

Domain Rank
codinghorror.com 45 776
fimes.gr 45 777
finanzaspersonales.com.co 45 778
recrutamentoafrica.com 45 779
slushpool.com 45 780
amkingdom.com 45 781
jetelecharge.com 45 782
stjohns.edu 45 783
cicero.de 45 784
rijadeja.com 45 785
mahkamahagung.go.id 45 786

DOMAINS WITH THE NEAREST RANK BY TLD .com

Domain Rank
bpm-power.com 45 774
flipit.com 45 775
codinghorror.com 45 776
recrutamentoafrica.com 45 779
slushpool.com 45 780
amkingdom.com 45 781
jetelecharge.com 45 782
rijadeja.com 45 785
theeconomiccollapseblog.com 45 787
fabrixquare.com 45 788
19yxw.com 45 790